{"data":{"norad_id":63941,"intl_designator":"2025-098R","name":"STARLINK-34004","alt_names":[],"object_type":"PAYLOAD","status":"ACTIVE","operator":null,"country":"US","launch_date":"2025-05-13","launch_site_code":"AFWTR","launch_vehicle":null,"mission":null,"orbit_class":"UNKNOWN","rcs_meters":null,"size_class":null,"mass_kg":null,"dimensions":null,"purposes":["comms"],"wikipedia_slug":null,"has_3d_model":false,"image_url":null,"decayed_at":null,"tle_current":{"epoch":"2026-05-25T03:05:47.004864Z","epoch_age_seconds":54126,"freshness":"FRESH","line1":"1 63941U 25098R   26145.12901626  .00005425  00000+0  46196-3 0  9996","line2":"2 63941  70.0004  81.6645 0003248 267.1036  92.9751 14.98342629 58002","mean_motion":14.98342629,"eccentricity":0.0003248,"inclination_deg":70.0004,"raan_deg":81.6645,"arg_perigee_deg":267.1036,"mean_anomaly_deg":92.9751,"bstar":0.00046196,"rev_number":5800,"period_min":96.106189073794,"perigee_km":569.75942711171,"apogee_km":574.27424704428,"semimajor_km":6950.153837078,"source":"CELESTRAK","updated_at":"2026-05-25T13:38:20.186108Z"}}}